Agassiz, British Columbia

6:05 PM PST on December 05, 2016 (GMT -0800)
Agassiz

Weather History for CWZA - January, 2014

Change the Weather History Date:

Tuesday, January 21, 2014

  Actual Average Record
Temperature  
Mean Temperature 42 °F -  
Max Temperature 46 °F - - ()
Min Temperature 34 °F - - ()
Degree Days  
Heating Degree Days 22    
Moisture  
Dew Point 29 °F    
Average Humidity 59    
Maximum Humidity 84    
Minimum Humidity 41    
Precipitation  
Precipitation 0.00 in - - ()
Sea Level Pressure  
Sea Level Pressure 30.28 in    
Wind  
Wind Speed 18 mph ()    
Max Wind Speed 30 mph    
Max Gust Speed 38 mph    
T = Trace of Precipitation, MM = Missing Value Source: Averaged Metar Reports

Daily Weather History Graph

Daily Weather History Graph

Search for Another Location

Airport or City:

Trip Planner

Search our weather history database for the weather conditions in past years. The results will help you decide how hot, cold, wet, or windy it might be!

Date:

Astronomy

Jan. 21, 2014 Rise Set
Actual Time 7:51 AM PST 4:46 PM PST
Civil Twilight 7:15 AM PST 5:21 PM PST
Nautical Twilight 6:36 AM PST 6:00 PM PST
Astronomical Twilight 5:58 AM PST 6:38 PM PST
Moon 10:58 PM PST (1/21) 9:51 AM PST (1/21)
Length of Visible Light 10h 05m
Length of Day
8h 54m
Waning Gibbous, 73% of the Moon is Illuminated
Jan 21
Waning Gibbous
Jan 23
Last Quarter
Jan 30
New
Feb 6
First Quarter
Feb 14
Full

Hourly Weather History & Observations

Time (PST) Temp. Windchill Dew Point Humidity Pressure Visibility Wind Dir Wind Speed Gust Speed Precip Events Conditions
12:00 AM 41.7 °F 31.9 °F 28.9 °F 61% 30.32 in - NE 24.2 mph 33.4 mph N/A   Unknown
1:00 AM 41.7 °F 32.6 °F 28.6 °F 60% 30.32 in - NE 20.7 mph 29.9 mph N/A   Unknown
2:00 AM 41.4 °F 33.6 °F 28.4 °F 60% 30.31 in - NE 15.0 mph 25.3 mph N/A   Unknown
3:00 AM 40.6 °F 30.7 °F 28.4 °F 62% 30.30 in - NE 23.0 mph 32.2 mph N/A   Unknown
4:00 AM 41 °F - 28 °F 49% 30.30 in - NE 25.3 mph - -  
4:00 AM 40.8 °F 30.4 °F 28.2 °F 61% 30.30 in - NE 25.3 mph 34.5 mph N/A   Unknown
5:00 AM 40.6 °F 30.0 °F 28.0 °F 61% 30.27 in - NE 26.5 mph 38.0 mph N/A   Unknown
6:00 AM 41.0 °F 31.1 °F 28.6 °F 61% 30.28 in - NE 23.0 mph 33.4 mph N/A   Unknown
7:00 AM 40.5 °F 29.3 °F 27.3 °F 59% 30.28 in - NE 28.8 mph 38.0 mph N/A   Unknown
8:00 AM 40.5 °F 29.1 °F 27.3 °F 59% 30.27 in - NE 29.9 mph 38.0 mph N/A   Unknown
9:00 AM 41.4 °F 30.9 °F 27.9 °F 59% 30.27 in - NE 26.5 mph 36.8 mph N/A   Unknown
10:00 AM 42 °F - 28 °F 44% 30.28 in - NE 27.6 mph - -  
10:00 AM 41.5 °F 31.0 °F 29.3 °F 62% 30.28 in - NE 27.6 mph 34.5 mph N/A   Unknown
11:00 AM 43.5 °F 33.6 °F 28.4 °F 55% 30.28 in - NE 27.6 mph 36.8 mph N/A   Unknown
12:00 PM 44.1 °F 34.4 °F 28.4 °F 54% 30.27 in - NE 27.6 mph 35.7 mph N/A   Unknown
1:00 PM 43.7 °F 34.5 °F 29.1 °F 57% 30.27 in - NE 24.2 mph 31.1 mph N/A   Unknown
2:00 PM 45.0 °F 36.9 °F 28.8 °F 53% 30.25 in - NE 20.7 mph 28.8 mph N/A   Unknown
3:00 PM 44.8 °F 37.7 °F 29.1 °F 54% 30.24 in - NE 16.1 mph 25.3 mph N/A   Unknown
4:00 PM 45 °F - 29 °F 41% 30.25 in - NE 19.6 mph - -  
4:00 PM 44.6 °F 36.6 °F 28.9 °F 54% 30.25 in - NE 19.6 mph 27.6 mph N/A   Unknown
5:00 PM 43.3 °F 40.7 °F 29.3 °F 58% 30.25 in - NNW 4.6 mph 18.4 mph N/A   Unknown
6:00 PM 42.8 °F 40.1 °F 29.8 °F 60% 30.27 in - ENE 4.6 mph - N/A   Unknown
7:00 PM 42.3 °F 37.9 °F 31.6 °F 66% 30.30 in - North 6.9 mph 17.3 mph N/A   Unknown
8:00 PM 39.9 °F - 31.3 °F 71% 30.31 in - NNW 2.3 mph - N/A   Unknown
9:00 PM 40.3 °F - 30.7 °F 69% 30.31 in - WNW 1.2 mph - N/A   Unknown
10:00 PM 41 °F - 30 °F 53% 30.30 in - NW 3.5 mph - -  
10:00 PM 40.6 °F 38.6 °F 29.7 °F 65% 30.30 in - NW 3.5 mph - N/A   Unknown
11:00 PM 34.2 °F - 29.7 °F 84% 30.34 in - ESE 2.3 mph - N/A   Unknown